SCP
0 0 0 0 0 0 0 0 0 0 0 0 0 0 0 0 0 0 0 0 0 0 0 0 0 0 0 0 0 0 0 0 0 0 0 0 0 0
0 0 0 0 0 0 0 0 0 0 0 0 0 0 0 0 0 0 0 0 0 0 0 0 0 0 0 0 0 0 0 0 0 0 0 0 0 0
0 0 0 0 0 0 -0 0 0 0 0 0 0 0 0 0 0 0 0 0 0 0 0 0 0 0 0 0 0 0 0 0 0 0 0 0 0 0
0 0 0 0 0 0 0 0 0 0 0 0 0 0 0 0 0 0 0 0 0 0 0 0 0 0 0 0 0 0 0 0 0 0 0 0 0 0
0 0 0 0 0 0 0 0 0 0 0 0 0 0 0 0 0 0 0 0 0 0 0 0 0 0 0 0 0 0 0 0 0 0 0 0 0 0
0 0 0 0 0 0 0 0 0 0 0 0 0 0 0 0 0 0 0 0 0 0 0 0 0 0 0 0 0 0 0 0 0 0 0 0 0 0
0 0 0 0 0 0 0 0 0 0 0 0 0 0 0 0 0 0 0 0 0 0 0 0 0 0 0 0 0 0 0 0 0 0 0 0 0 0
0 0 0 0 0 0 0 0 0 0 0 0 0 0 0 0 0 0 0 0 0 0 0 0 0 0 0 0 0 0 0 0 0 0 0 0 0 0
0 0 0 0 0 0 0 0 0 0 0 0 0 0 0 0 0 0 0 0 0 0 0 0 0 0 0 0 0 0 0 0 0 0 0 0 0 0
0 0 0 0 0 0 0 0 0 0 0 0 0 0 0 0 0 0 0 0 0 0 0 0 0 0 0 0 0 0 0 0 0 0 0 0 0 0
0 0 0 0 0 0 0 0 0 0 0 0 0 0 0 0 0 0 0 0 0 0 0 0 0 0 0 0 0 0 0 0 0 0 0 0 0 0
0 0 -0 0 0 0 0 0 0 0 0 0 0 0 0 0 0 0 0 0 0 0 0 0 0 0 0 0 0 0 0 0 0 0 0 0 0 0
0 0 0 0 0 0 0 0 0 0 0 0 0 0 0 0 0 0 0 0 0 0 0 0 0 0 0 0 0 0 0 0 0 0 0 0 0 0
0 0 0 0 0 0 0 0 0 0 0 0 0 0 0 0 0 0 0 0 0 0 0 0 0 0 0 0 0 0 0 0 0 0 0 0 0 0
0 0 0 0 0 0 0 0 0 0 0 0 0 0 0 0 0 0 0 0 0 0 0 0 0 0 0 0 0 0 0 0 0 0 0 0 0 0
0 0 0 0 0 0 0 0 0 0 0 0 0 0 0 0 0 0 0 0 0 0 0 0 0 0 0 0 0 0 0 0 0 0 0 0 0 0
0 0 0 0 0 0 0 0 0 0 0 0 0 0 0 0 0 0 0 0 0 0 0 0 0 0 0 0 0 0 0 0 0 0 0 0 0 0
0 0 0 0 0 0 0 0 0 0 0 0 0 0 0 0 0 0 0 0 0 0 0 0 0 0 0 0 0 0 0 0 0 0 0 0 0 0
0 0 0 0 0 0 0 0 0 0 0 0 0 0 0 0 0 0 0 0 0 0 0 0 0 0 0 0 0 0 0 0 0 0 0 0 0 0
0 0 0 0 0 0 0 0 0 0 0 0 0 0 0 0 0 0 0 0 0 0 0 0 0 0 0 0 0 0 0 0 0 0 0 0 0 0
0 0 0 0 0 0 0 0 0 0 0 0 0 0 0 0 0 0 0 0 0 0 0 0 0 0 0 0 0 0 0 0 0 0 0 0 0 0
0 0 0 0 0 0 0 0 0 0 0 0 0 0 0 0 0 0 0 0 0 0 0 0 0 0 0 0 0 0 0 0 0 0 0 0 0 0
0 0 0 0 0 0 0 0 0 0 0 0 0 0 0 0 0 0 0 0 0 0 0 0 0 0 0 0 0 0 0 0 0 0 0 0 0 0
Wind_Speed_500mb
84 66 90 93 87 71 62 53 67 26 43 60 69 63 64 64 68 68 64 62 67 65 63 63 65 65 67 66 63 58 57 61 56 53 48 46 38 28
81 76 92 93 77 68 62 64 69 64 48 42 48 62 67 68 66 64 66 64 68 73 70 70 64 58 57 51 55 48 45 44 39 36 34 35 23 27
88 79 72 68 68 66 68 66 69 51 50 40 49 54 47 49 53 57 60 53 46 40 35 29 32 38 44 44 36 32 29 22 19 20 18 26 38 39
73 59 58 65 66 64 70 72 57 50 45 52 50 43 39 40 36 32 31 32 35 34 32 35 34 34 33 33 33 30 24 28 28 24 20 19 22 14
57 59 55 53 57 70 68 54 53 44 42 43 43 40 37 34 32 32 33 34 35 36 34 31 30 30 32 33 31 31 32 30 30 28 26 25 26 35
51 33 25 41 45 48 38 36 35 35 37 35 38 40 41 38 36 36 35 33 30 32 31 27 28 31 31 28 22 20 20 21 21 20 19 20 25 30
46 41 32 33 33 22 21 21 20 20 20 25 31 39 41 44 42 35 31 30 27 23 22 22 23 22 21 20 18 19 19 18 18 18 18 19 20 22
50 47 43 36 34 23 22 19 18 14 17 24 29 35 39 38 35 31 30 29 23 23 22 23 22 21 22 20 19 19 18 18 18 18 18 20 22 23
56 53 47 38 34 30 27 22 24 25 21 14 20 26 32 31 30 29 26 24 20 24 24 23 23 22 20 20 21 22 23 22 23 22 22 22 22 23
65 54 48 45 38 31 29 29 31 33 29 27 26 29 26 26 24 22 24 24 20 24 28 27 27 25 25 23 23 23 25 24 21 22 21 22 23 23
63 55 46 45 43 33 26 28 28 29 29 23 19 17 21 25 23 24 26 25 20 23 25 24 25 25 25 23 21 27 29 28 23 24 25 28 27 27
53 51 44 39 36 32 23 24 22 27 23 19 18 15 17 19 21 24 25 25 23 20 26 29 26 27 24 31 32 31 34 35 29 28 30 30 31 30
41 39 37 28 25 23 18 16 12 14 12 10 9 13 15 16 18 20 22 23 27 27 20 30 28 31 32 18 36 36 39 39 33 32 30 32 34 34
29 27 24 17 10 7 5 6 5 5 7 8 14 15 17 18 19 20 21 26 27 28 31 32 32 33 38 35 29 38 43 43 42 39 35 35 34 34
16 11 7 4 1 3 5 6 6 9 13 13 18 19 17 18 21 19 23 24 25 28 32 33 36 39 39 39 38 39 38 44 43 42 41 41 39 40
14 12 10 7 6 6 5 4 4 9 12 15 17 15 14 14 18 17 22 23 24 26 29 30 33 39 40 40 41 40 39 31 32 37 39 40 41 41
10 9 6 5 6 3 4 3 5 5 7 10 10 8 8 9 12 14 16 18 19 22 21 21 27 30 31 34 35 40 43 43 41 40 42 42 42 41
10 9 8 8 7 6 4 5 5 4 6 6 6 8 8 8 9 10 11 11 12 13 16 19 21 22 22 24 27 30 33 36 35 36 38 36 33 33
5 7 8 9 9 7 6 5 5 6 8 9 9 9 11 12 13 15 15 15 15 17 17 19 18 17 20 21 20 19 20 19 20 24 25 27 27 28
7 9 10 9 9 7 7 8 9 10 11 11 12 12 13 14 15 16 16 16 17 18 18 19 18 18 17 16 17 18 15 18 22 22 25 28 29 29
10 10 10 10 11 11 12 12 12 13 13 13 13 13 14 15 16 17 18 18 19 20 20 20 21 21 21 21 22 20 20 23 24 25 26 28 29 33
9 10 12 14 14 14 14 13 13 13 13 13 13 14 15 16 18 19 21 22 23 24 24 25 24 25 26 27 26 28 27 24 27 29 26 28 31 27
9 10 12 13 14 14 14 14 15 15 15 17 18 18 19 21 23 24 25 26 28 28 29 28 28 31 30 31 32 31 30 29 31 32 32 33 40 39
Wind_Direction_500mb
211 227 230 234 223 223 237 239 233 226 244 249 244 243 243 244 246 247 247 249 253 251 252 251 251 252 251 253 254 255 252 263 256 258 259 270 279 289
215 216 219 218 219 240 238 237 244 248 247 250 245 246 243 238 237 241 247 252 251 253 253 255 255 253 251 239 222 223 218 236 231 235 249 267 243 197
210 209 224 232 229 241 242 249 254 246 254 233 228 228 227 229 237 240 242 242 243 245 246 232 221 212 204 202 208 208 222 231 236 235 221 200 180 155
216 214 216 231 238 246 244 245 244 248 242 246 246 227 228 233 230 227 218 216 203 185 189 191 195 199 203 207 205 212 195 170 162 172 188 190 191 207
204 212 216 236 242 242 239 239 229 227 240 245 239 229 219 210 203 204 200 201 200 194 192 187 188 196 198 200 205 213 223 227 228 231 236 232 216 180
191 189 214 211 212 211 216 210 226 234 234 239 237 215 202 190 195 191 183 186 189 192 202 216 219 219 220 223 221 213 207 201 196 196 192 188 187 188
175 188 182 184 183 177 187 199 207 208 217 216 210 195 186 182 185 187 193 194 193 201 200 195 193 188 187 183 179 175 177 177 180 180 179 177 178 182
152 146 145 147 149 149 148 154 165 163 184 184 181 184 179 182 184 192 197 189 181 185 185 182 177 174 172 174 178 183 193 196 198 199 201 204 203 210
133 130 132 126 124 129 127 132 129 124 124 140 166 169 171 177 182 186 194 198 198 185 182 186 180 186 194 200 205 209 213 211 208 208 204 204 209 209
120 119 123 117 108 111 118 124 123 125 127 138 149 154 164 167 169 179 183 185 186 188 192 201 206 211 217 214 213 217 222 224 222 219 217 219 225 227
113 116 117 117 112 109 116 116 118 122 124 130 134 141 154 166 168 181 189 197 207 215 219 224 225 224 222 219 213 210 233 238 231 225 222 229 238 240
112 113 109 111 111 109 111 107 122 122 128 132 140 147 167 176 186 197 209 224 229 235 226 224 227 219 219 228 224 217 229 238 231 231 235 240 242 245
104 109 114 116 117 117 117 118 119 122 134 150 165 182 187 200 210 214 217 224 227 230 243 228 236 230 224 226 227 226 232 242 243 239 241 247 252 251
95 95 99 100 102 109 128 133 148 185 215 220 222 222 223 223 231 238 238 237 238 241 242 241 240 240 236 234 235 236 236 243 249 251 252 250 250 249
92 86 86 79 3 283 257 253 260 249 244 253 251 243 244 249 249 247 254 254 252 251 250 249 248 247 247 245 246 246 243 246 251 254 255 255 255 256
47 43 41 56 62 43 16 5 291 257 248 247 251 251 253 257 265 265 261 258 254 254 253 252 251 249 247 245 245 243 241 234 243 250 255 259 262 262
41 49 72 49 27 15 353 312 267 275 280 260 259 265 274 288 285 273 269 270 263 259 261 263 257 252 250 248 245 243 247 248 250 254 258 261 261 262
4 3 9 28 23 28 13 340 316 287 263 277 308 324 328 317 314 300 290 278 277 279 272 264 261 262 258 253 248 247 246 248 252 255 257 261 260 259
308 321 344 351 351 341 347 309 290 328 340 335 328 326 323 315 308 298 295 298 294 287 281 280 281 272 263 260 260 252 254 254 251 251 255 258 257 252
356 348 345 342 333 321 309 314 321 319 311 309 307 305 301 295 289 287 290 289 288 290 290 289 289 288 281 269 253 265 267 266 270 265 265 265 263 260
334 320 311 305 295 297 303 304 299 293 295 296 296 295 293 290 289 291 293 293 292 291 293 291 289 287 285 282 278 274 264 274 277 273 274 275 275 272
272 273 278 281 286 291 291 288 287 290 292 292 292 293 292 293 294 294 292 292 291 290 288 287 284 282 283 286 287 285 280 270 267 265 258 276 286 279
287 286 284 284 283 282 281 281 281 282 282 284 286 288 290 290 288 286 285 284 283 282 282 280 280 282 283 284 284 284 281 279 277 269 260 258 256 262
Wind_Speed_850mb
84 66 90 93 87 71 62 53 67 26 43 60 69 63 64 64 68 68 64 62 67 65 63 63 65 65 67 66 63 58 57 61 56 53 48 46 38 28
81 76 92 93 77 68 62 64 69 64 48 42 48 62 67 68 66 64 66 64 68 73 70 70 64 58 57 51 55 48 45 44 39 36 34 35 23 27
88 79 72 68 68 66 68 66 69 51 50 40 49 54 47 49 53 57 60 53 46 40 35 29 32 38 44 44 36 32 29 22 19 20 18 26 38 39
73 59 58 65 66 64 70 72 57 50 45 52 50 43 39 40 36 32 31 32 35 34 32 35 34 34 33 33 33 30 24 28 28 24 20 19 22 14
57 59 55 53 57 70 68 54 53 44 42 43 43 40 37 34 32 32 33 34 35 36 34 31 30 30 32 33 31 31 32 30 30 28 26 25 26 35
51 33 25 41 45 48 38 36 35 35 37 35 38 40 41 38 36 36 35 33 30 32 31 27 28 31 31 28 22 20 20 21 21 20 19 20 25 30
46 41 32 33 33 22 21 21 20 20 20 25 31 39 41 44 42 35 31 30 27 23 22 22 23 22 21 20 18 19 19 18 18 18 18 19 20 22
50 47 43 36 34 23 22 19 18 14 17 24 29 35 39 38 35 31 30 29 23 23 22 23 22 21 22 20 19 19 18 18 18 18 18 20 22 23
56 53 47 38 34 30 27 22 24 25 21 14 20 26 32 31 30 29 26 24 20 24 24 23 23 22 20 20 21 22 23 22 23 22 22 22 22 23
65 54 48 45 38 31 29 29 31 33 29 27 26 29 26 26 24 22 24 24 20 24 28 27 27 25 25 23 23 23 25 24 21 22 21 22 23 23
63 55 46 45 43 33 26 28 28 29 29 23 19 17 21 25 23 24 26 25 20 23 25 24 25 25 25 23 21 27 29 28 23 24 25 28 27 27
53 51 44 39 36 32 23 24 22 27 23 19 18 15 17 19 21 24 25 25 23 20 26 29 26 27 24 31 32 31 34 35 29 28 30 30 31 30
41 39 37 28 25 23 18 16 12 14 12 10 9 13 15 16 18 20 22 23 27 27 20 30 28 31 32 18 36 36 39 39 33 32 30 32 34 34
29 27 24 17 10 7 5 6 5 5 7 8 14 15 17 18 19 20 21 26 27 28 31 32 32 33 38 35 29 38 43 43 42 39 35 35 34 34
16 11 7 4 1 3 5 6 6 9 13 13 18 19 17 18 21 19 23 24 25 28 32 33 36 39 39 39 38 39 38 44 43 42 41 41 39 40
14 12 10 7 6 6 5 4 4 9 12 15 17 15 14 14 18 17 22 23 24 26 29 30 33 39 40 40 41 40 39 31 32 37 39 40 41 41
10 9 6 5 6 3 4 3 5 5 7 10 10 8 8 9 12 14 16 18 19 22 21 21 27 30 31 34 35 40 43 43 41 40 42 42 42 41
10 9 8 8 7 6 4 5 5 4 6 6 6 8 8 8 9 10 11 11 12 13 16 19 21 22 22 24 27 30 33 36 35 36 38 36 33 33
5 7 8 9 9 7 6 5 5 6 8 9 9 9 11 12 13 15 15 15 15 17 17 19 18 17 20 21 20 19 20 19 20 24 25 27 27 28
7 9 10 9 9 7 7 8 9 10 11 11 12 12 13 14 15 16 16 16 17 18 18 19 18 18 17 16 17 18 15 18 22 22 25 28 29 29
10 10 10 10 11 11 12 12 12 13 13 13 13 13 14 15 16 17 18 18 19 20 20 20 21 21 21 21 22 20 20 23 24 25 26 28 29 33
9 10 12 14 14 14 14 13 13 13 13 13 13 14 15 16 18 19 21 22 23 24 24 25 24 25 26 27 26 28 27 24 27 29 26 28 31 27
9 10 12 13 14 14 14 14 15 15 15 17 18 18 19 21 23 24 25 26 28 28 29 28 28 31 30 31 32 31 30 29 31 32 32 33 40 39
Wind_Direction_850mb
211 227 230 234 223 223 237 239 233 226 244 249 244 243 243 244 246 247 247 249 253 251 252 251 251 252 251 253 254 255 252 263 256 258 259 270 279 289
215 216 219 218 219 240 238 237 244 248 247 250 245 246 243 238 237 241 247 252 251 253 253 255 255 253 251 239 222 223 218 236 231 235 249 267 243 197
210 209 224 232 229 241 242 249 254 246 254 233 228 228 227 229 237 240 242 242 243 245 246 232 221 212 204 202 208 208 222 231 236 235 221 200 180 155
216 214 216 231 238 246 244 245 244 248 242 246 246 227 228 233 230 227 218 216 203 185 189 191 195 199 203 207 205 212 195 170 162 172 188 190 191 207
204 212 216 236 242 242 239 239 229 227 240 245 239 229 219 210 203 204 200 201 200 194 192 187 188 196 198 200 205 213 223 227 228 231 236 232 216 180
191 189 214 211 212 211 216 210 226 234 234 239 237 215 202 190 195 191 183 186 189 192 202 216 219 219 220 223 221 213 207 201 196 196 192 188 187 188
175 188 182 184 183 177 187 199 207 208 217 216 210 195 186 182 185 187 193 194 193 201 200 195 193 188 187 183 179 175 177 177 180 180 179 177 178 182
152 146 145 147 149 149 148 154 165 163 184 184 181 184 179 182 184 192 197 189 181 185 185 182 177 174 172 174 178 183 193 196 198 199 201 204 203 210
133 130 132 126 124 129 127 132 129 124 124 140 166 169 171 177 182 186 194 198 198 185 182 186 180 186 194 200 205 209 213 211 208 208 204 204 209 209
120 119 123 117 108 111 118 124 123 125 127 138 149 154 164 167 169 179 183 185 186 188 192 201 206 211 217 214 213 217 222 224 222 219 217 219 225 227
113 116 117 117 112 109 116 116 118 122 124 130 134 141 154 166 168 181 189 197 207 215 219 224 225 224 222 219 213 210 233 238 231 225 222 229 238 240
112 113 109 111 111 109 111 107 122 122 128 132 140 147 167 176 186 197 209 224 229 235 226 224 227 219 219 228 224 217 229 238 231 231 235 240 242 245
104 109 114 116 117 117 117 118 119 122 134 150 165 182 187 200 210 214 217 224 227 230 243 228 236 230 224 226 227 226 232 242 243 239 241 247 252 251
95 95 99 100 102 109 128 133 148 185 215 220 222 222 223 223 231 238 238 237 238 241 242 241 240 240 236 234 235 236 236 243 249 251 252 250 250 249
92 86 86 79 3 283 257 253 260 249 244 253 251 243 244 249 249 247 254 254 252 251 250 249 248 247 247 245 246 246 243 246 251 254 255 255 255 256
47 43 41 56 62 43 16 5 291 257 248 247 251 251 253 257 265 265 261 258 254 254 253 252 251 249 247 245 245 243 241 234 243 250 255 259 262 262
41 49 72 49 27 15 353 312 267 275 280 260 259 265 274 288 285 273 269 270 263 259 261 263 257 252 250 248 245 243 247 248 250 254 258 261 261 262
4 3 9 28 23 28 13 340 316 287 263 277 308 324 328 317 314 300 290 278 277 279 272 264 261 262 258 253 248 247 246 248 252 255 257 261 260 259
308 321 344 351 351 341 347 309 290 328 340 335 328 326 323 315 308 298 295 298 294 287 281 280 281 272 263 260 260 252 254 254 251 251 255 258 257 252
356 348 345 342 333 321 309 314 321 319 311 309 307 305 301 295 289 287 290 289 288 290 290 289 289 288 281 269 253 265 267 266 270 265 265 265 263 260
334 320 311 305 295 297 303 304 299 293 295 296 296 295 293 290 289 291 293 293 292 291 293 291 289 287 285 282 278 274 264 274 277 273 274 275 275 272
272 273 278 281 286 291 291 288 287 290 292 292 292 293 292 293 294 294 292 292 291 290 288 287 284 282 283 286 287 285 280 270 267 265 258 276 286 279
287 286 284 284 283 282 281 281 281 282 282 284 286 288 290 290 288 286 285 284 283 282 282 280 280 282 283 284 284 284 281 279 277 269 260 258 256 262